User: anonymous   Login
Location: Lone Wolf Observatory
(41.0360°N, 89.2260°W)
Time: 06:03:23
(UTC-06:00)
Language:

Cosmos 1378 Rocket - Orbit

View from above orbital plane
View from above orbital plane
View from above satellite
View from above satellite

Ground track
Ground track

The orbit data is extracted from the following two-line orbital elements,

1 13272U 82059B   16043.07958872  .00000269  00000-0  29104-4 0  9996
2 13272  82.5081 240.5862 0017333 302.0093  57.9438 14.84486810819033
Epoch (UTC): 12 February 2016 01:54:36
Eccentricity: 0.0017333
inclination: 82.5081°
perigee height: 603 km
apogee height: 627 km
right ascension of ascending node: 240.5862°
argument of perigee: 302.0093°
revolutions per day: 14.84486810
mean anomaly at epoch: 57.9438°
orbit number at epoch: 81903

The dashed part of the orbit path shows where the satellite is in the earth's shadow,  

DLR